Home > Weather > Irving > Past weeks

Flag for USA Weather for the Past 2 Weeks in Irving, Texas, USA

Now
65 °F

Passing clouds.


Feels Like: 65 °F
Forecast: 57 / 68 °F
Wind: 16 mph from North

Location: Dallas / Fort Worth International Airport

Current Time: May 2, 2016 at 1:14:46 AM

Latest Report: May 1, 2016 at 11:53 PM


Visibility: 10 mi

Pressure: 30.05 "Hg

Humidity: 59%

Dew Point: 50 °F

Location of IrvingLocation

Historic Weather in Irving — Graph

°F

Irving Temperature Yesterday

Maximum temperature yesterday: 74 °F (at 3:53 PM)
Minimum temperature yesterday: 58 °F (at 6:53 AM)
Average temperature yesterday: 67 °F

High & Low Weather Summary for the Past Weeks

 TemperatureHumidityPressure
High85 °F (Apr 25, 3:53 PM)94% (Apr 18, 3:53 AM)30.15 "Hg (Apr 18, 3:53 AM)
Low58 °F (Apr 22, 4:53 AM)25% (Apr 27, 3:53 PM)29.51 "Hg (Apr 26, 7:53 PM)
Average71 °F67%29.86 "Hg
* Reported Apr 16 10:53 PM — May 1 10:53 PM, Irving, Weather by CustomWeather, © 2016

Note: Actual official high and low records may vary slightly from our data, if they occured in-between our weather recording intervals... More about our weather records

Advertising

Irving Weather History for the Previous 24 Hours

Scroll right to see more
 ConditionsComfort  
Time TempWeatherWind HumidityBarometerVisibility
10:53 PM
Sun, May 1
66 °FPassing clouds.13 mph56%30.04 "Hg10 mi
9:53 PM67 °FPassing clouds.13 mph55%30.02 "Hg10 mi
8:53 PM68 °FScattered clouds.13 mph51%29.99 "Hg10 mi
7:53 PM69 °FScattered clouds.12 mph49%29.96 "Hg10 mi
6:53 PM72 °FPassing clouds.14 mph44%29.94 "Hg10 mi
5:53 PM73 °FPassing clouds.14 mph43%29.92 "Hg10 mi
4:53 PM74 °FSunny.16 mph45%29.92 "Hg10 mi
3:53 PM74 °FPassing clouds.15 mph41%29.94 "Hg10 mi
2:53 PM73 °FPassing clouds.14 mph41%29.99 "Hg10 mi
1:53 PM71 °FPassing clouds.12 mph44%30.00 "Hg10 mi
12:53 PM69 °FSunny.13 mph47%30.01 "Hg10 mi
11:53 AM68 °FSunny.16 mph49%30.02 "Hg10 mi
10:53 AM67 °FSunny.20 mph49%30.00 "Hg10 mi
9:53 AM64 °FPassing clouds.18 mph52%30.00 "Hg10 mi
8:53 AM63 °FPassing clouds.14 mph60%29.98 "Hg10 mi
7:53 AM61 °FPassing clouds.20 mph62%29.95 "Hg10 mi
6:53 AM58 °FPassing clouds.12 mph72%29.92 "Hg10 mi
5:53 AM60 °FPassing clouds.13 mph65%29.91 "Hg10 mi
4:53 AM61 °FClear.14 mph72%29.88 "Hg10 mi
3:53 AM62 °FClear.13 mph80%29.87 "Hg10 mi
2:53 AM62 °FClear.7 mph80%29.86 "Hg10 mi
1:53 AM63 °FClear.9 mph81%29.86 "Hg10 mi
Weather by CustomWeather, © 2016

See weather overviewHow to use our weather pages